SXBEP LGKM-LGTS

Flight info

Callsign SXBEP
Flight time N/A
Altitude 8000
Route KAVALA LGKV ASKOS1B ASKOS G12 ARNAS ARNAS3F
Aircraft DA42/L-SBDFGRYZ/S

Departure

Time N/A
Airport Kavala Amygdaleon Lydia Airfield (LGKM)

Arrival

Time 2026-04-27 14:31
Airport Thessaloniki Macedonia International Airport (LGTS)
Time Latitude Longitude Altitude Speed Heading
2026-04-27 14:04 40.52929 23.48934 8171 ft 137 kts 264°
2026-04-27 14:04 40.52798 23.47696 8170 ft 136 kts 273°
2026-04-27 14:04 40.52781 23.46446 8169 ft 136 kts 272°
2026-04-27 14:04 40.52760 23.45197 8171 ft 137 kts 272°
2026-04-27 14:05 40.52739 23.43949 8170 ft 136 kts 272°
2026-04-27 14:05 40.52719 23.42720 8173 ft 136 kts 272°
2026-04-27 14:05 40.52698 23.41474 8172 ft 136 kts 272°
2026-04-27 14:05 40.52678 23.40228 8169 ft 136 kts 272°
2026-04-27 14:06 40.52657 23.38986 8170 ft 136 kts 272°
2026-04-27 14:06 40.52636 23.37744 8170 ft 136 kts 272°
2026-04-27 14:06 40.52614 23.36506 8169 ft 135 kts 272°
2026-04-27 14:06 40.52599 23.35272 8164 ft 135 kts 273°
2026-04-27 14:07 40.52572 23.34031 8165 ft 136 kts 272°
2026-04-27 14:07 40.52549 23.32785 8166 ft 137 kts 272°
2026-04-27 14:07 40.52526 23.31527 8164 ft 138 kts 272°
2026-04-27 14:07 40.52506 23.30274 8165 ft 137 kts 272°
2026-04-27 14:08 40.52483 23.29021 8164 ft 137 kts 272°
2026-04-27 14:08 40.52462 23.27767 8166 ft 138 kts 272°
2026-04-27 14:08 40.52438 23.26506 8167 ft 138 kts 272°
2026-04-27 14:08 40.52416 23.25244 8167 ft 137 kts 272°
2026-04-27 14:09 40.52395 23.24017 8165 ft 135 kts 272°
2026-04-27 14:09 40.52374 23.22781 8161 ft 135 kts 273°
2026-04-27 14:09 40.52349 23.21537 8164 ft 137 kts 272°
2026-04-27 14:09 40.52324 23.20288 8162 ft 136 kts 272°
2026-04-27 14:10 40.52304 23.19037 8164 ft 137 kts 272°
2026-04-27 14:10 40.52280 23.17792 8162 ft 136 kts 273°
2026-04-27 14:10 40.52257 23.16553 8160 ft 136 kts 272°
2026-04-27 14:10 40.52234 23.15317 8162 ft 135 kts 272°
2026-04-27 14:11 40.52211 23.14080 8165 ft 136 kts 272°
2026-04-27 14:11 40.52186 23.12846 8164 ft 134 kts 272°
2026-04-27 14:11 40.52162 23.11625 8163 ft 134 kts 272°
2026-04-27 14:11 40.52139 23.10408 8156 ft 132 kts 272°
2026-04-27 14:12 40.52116 23.09206 8157 ft 131 kts 272°
2026-04-27 14:12 40.52093 23.08013 8158 ft 130 kts 272°
2026-04-27 14:12 40.52070 23.06825 8158 ft 130 kts 272°
2026-04-27 14:12 40.52047 23.05636 8158 ft 130 kts 272°
2026-04-27 14:13 40.52022 23.04447 8157 ft 130 kts 272°
2026-04-27 14:13 40.51999 23.03262 8156 ft 130 kts 272°
2026-04-27 14:13 40.51977 23.02077 8158 ft 130 kts 272°
2026-04-27 14:13 40.51955 23.00903 8159 ft 130 kts 272°
2026-04-27 14:14 40.51934 22.99717 8158 ft 130 kts 272°
2026-04-27 14:14 40.51910 22.98534 8156 ft 130 kts 272°
2026-04-27 14:14 40.51899 22.97341 8157 ft 131 kts 272°
2026-04-27 14:14 40.52118 22.96199 8159 ft 131 kts 301°
2026-04-27 14:15 40.52838 22.95477 8146 ft 135 kts 332°
2026-04-27 14:15 40.53764 22.95042 7979 ft 146 kts 341°
2026-04-27 14:15 40.54691 22.94537 7781 ft 145 kts 328°
2026-04-27 14:15 40.55672 22.94139 7588 ft 149 kts 338°
2026-04-27 14:16 40.56620 22.93600 7396 ft 149 kts 330°
2026-04-27 14:16 40.57551 22.92991 7201 ft 150 kts 329°
2026-04-27 14:16 40.58486 22.92353 7006 ft 151 kts 328°
2026-04-27 14:16 40.59413 22.91712 6814 ft 150 kts 327°
2026-04-27 14:17 40.60341 22.91069 6622 ft 151 kts 327°
2026-04-27 14:17 40.61263 22.90418 6420 ft 150 kts 326°
2026-04-27 14:17 40.62178 22.89775 6216 ft 148 kts 327°
2026-04-27 14:17 40.63086 22.89136 6012 ft 148 kts 328°
2026-04-27 14:18 40.63999 22.88497 5812 ft 149 kts 329°
2026-04-27 14:18 40.64925 22.87851 5613 ft 151 kts 328°
2026-04-27 14:18 40.65846 22.87203 5416 ft 153 kts 330°
2026-04-27 14:18 40.66790 22.86544 5216 ft 153 kts 330°
2026-04-27 14:19 40.67728 22.85884 5016 ft 153 kts 330°
2026-04-27 14:19 40.68666 22.85225 4816 ft 153 kts 331°
2026-04-27 14:19 40.69610 22.84565 4612 ft 154 kts 332°
2026-04-27 14:19 40.70564 22.83895 4391 ft 156 kts 332°
2026-04-27 14:20 40.71527 22.83217 4200 ft 158 kts 332°
2026-04-27 14:20 40.72505 22.82531 3999 ft 159 kts 332°
2026-04-27 14:20 40.73488 22.81842 3801 ft 161 kts 332°
2026-04-27 14:20 40.74465 22.81155 3595 ft 162 kts 333°
2026-04-27 14:21 40.75518 22.80743 3491 ft 156 kts
2026-04-27 14:21 40.76434 22.81323 3478 ft 143 kts 53°
2026-04-27 14:21 40.76725 22.82490 3486 ft 133 kts 98°
2026-04-27 14:21 40.76449 22.83608 3491 ft 128 kts 123°
2026-04-27 14:22 40.75955 22.84593 3494 ft 130 kts 125°
2026-04-27 14:22 40.75445 22.85584 3489 ft 129 kts 125°
2026-04-27 14:22 40.74949 22.86563 3479 ft 127 kts 124°
2026-04-27 14:22 40.74449 22.87504 3491 ft 125 kts 126°
2026-04-27 14:23 40.73961 22.88493 3491 ft 130 kts 124°
2026-04-27 14:23 40.73423 22.89429 3487 ft 128 kts 144°
2026-04-27 14:23 40.72677 22.90077 3494 ft 129 kts 147°
2026-04-27 14:23 40.71880 22.90613 3489 ft 128 kts 161°
2026-04-27 14:24 40.71049 22.90948 3484 ft 121 kts 162°
2026-04-27 14:24 40.70259 22.91233 3476 ft 117 kts 164°
2026-04-27 14:24 40.69443 22.91512 3330 ft 124 kts 164°
2026-04-27 14:24 40.68601 22.91786 3165 ft 128 kts 166°
2026-04-27 14:25 40.67709 22.92072 2985 ft 132 kts 167°
2026-04-27 14:25 40.66818 22.92349 2811 ft 134 kts 166°
2026-04-27 14:25 40.65904 22.92644 2635 ft 136 kts 166°
2026-04-27 14:25 40.64983 22.92937 2449 ft 136 kts 166°
2026-04-27 14:26 40.64061 22.93235 2269 ft 136 kts 166°
2026-04-27 14:26 40.63142 22.93523 2085 ft 133 kts 167°
2026-04-27 14:26 40.62567 22.93719 1971 ft 124 kts 165°
2026-04-27 14:26 40.61754 22.93974 1809 ft 117 kts 165°
2026-04-27 14:27 40.60729 22.94299 1604 ft 111 kts 165°
2026-04-27 14:27 40.60238 22.94456 1497 ft 108 kts 165°
2026-04-27 14:27 40.59514 22.94687 1363 ft 106 kts 165°
2026-04-27 14:27 40.58809 22.94913 1218 ft 99 kts 165°
2026-04-27 14:28 40.58164 22.95124 1092 ft 92 kts 166°
2026-04-27 14:28 40.57578 22.95309 974 ft 83 kts 167°
2026-04-27 14:28 40.57032 22.95486 867 ft 79 kts 167°
2026-04-27 14:28 40.56490 22.95658 759 ft 79 kts 168°
2026-04-27 14:29 40.55963 22.95827 657 ft 76 kts 169°
2026-04-27 14:29 40.55455 22.95989 556 ft 74 kts 169°
2026-04-27 14:29 40.54990 22.96139 462 ft 65 kts 171°
2026-04-27 14:29 40.54561 22.96282 381 ft 63 kts 170°
2026-04-27 14:30 40.54135 22.96416 300 ft 62 kts 172°
2026-04-27 14:30 40.53708 22.96547 211 ft 63 kts 171°
2026-04-27 14:30 40.53285 22.96685 125 ft 63 kts 170°
2026-04-27 14:30 40.52869 22.96817 44 ft 60 kts 172°
2026-04-27 14:31 40.52526 22.96918 24 ft 37 kts 169°
2026-04-27 14:31 40.52336 22.96981 22 ft 24 kts 166°
2026-04-27 14:31 40.52236 22.97063 22 ft 14 kts 72°
2026-04-27 14:31 40.52333 22.97133 23 ft 18 kts 24°
2026-04-27 14:32 40.52392 22.97252 23 ft 17 kts 86°
2026-04-27 14:32 40.52444 22.97252 23 ft 14 kts 316°
2026-04-27 14:32 40.52523 22.97201 23 ft 14 kts 349°
2026-04-27 14:32 40.52570 22.97222 23 ft 9 kts 76°
2026-04-27 14:33 40.52577 22.97310 23 ft 10 kts 104°
2026-04-27 14:33 40.52576 22.97377 23 ft 7 kts 360°
2026-04-27 14:33 40.52581 22.97374 23 ft 0 kts 302°